Location: Go?cza
(50.3372°N, 19.9313°E)
Time: 01:31:18
(UTC+00:00)

EXPRESS MD2 - Pass Details

Date: 23 May 2024
Orbit: 261 x 3332 km, 49.9° (Epoch: 18 June)

Event Time Altitude Azimuth Distance (km) Brightness Sun altitude
Exits shadow 01:22:21 16° 225° (SW) 1,107 4.2 -10.2°
Maximum altitude 01:24:30 48° 154° (SSE) 636 3.5 -10.0°
Drops below altitude 10° 01:29:08 10° 80° (E) 2,269 7.3 -9.5°
Sets 01:32:33 0° 76° (ENE) 3,703 8.5 -9.2°
